Hlavní strana
METAR-TAF:

METAR-TAF

Letiště :

Perry, Georgie, Spojené státy americké

zeměpisná šířka: 32-30-38N, zeměpisná délka: 083-46-02W, výška: 127 m

Aktuální stav počasí

Zpráva byla vytvořena před 12 minutami, v 17:15 UTC
Severoseverovýchodní vítr 10 kt
Teplota 10°C
Vlhkost vzduchu 93%
Tlak 1018 hPa
Viditelnost: 4.8 km
Zataženo ve výšce 400 ft
slabé mrholení, kouřmo

METAR: KPXE 151715Z AUTO 02010KT 3SM -DZ BR OVC004 10/09 A3006 RMK AO2 T00990094

Čas: 12:27 (17:27 UTC)


TAF: chybějící

Stav a předpovědi počasí z více než 4 000 letišť (zprávy METAR a TAF).

Červené a žluté tečky na mapě představují dostupné meteorologické stanice.

Když kurzor umístíte na tečku, zobrazí se název stanice.

Pak kliknutím zobrazíte stav a předpověď počasí.

Chcete-li změnit mapu, kliknutím na zelené tlačítko se znaménkem +mapu přiblížíte, kliknutím na zelené tlačítko se znaménkem – mapu oddálíte a kliknutím na zelené šipky přejdete na sousední mapy.


METAR-TAF: